View from above orbital plane
|
View from above satellite
|
Ground track
|
The orbit data is extracted from the following two-line orbital elements,
1 14032U 83037A 21022.81115847 .00000456 00000-0 20351-4 0 9993
2 14032 82.5139 226.5342 0017650 28.5832 331.6366 15.18591256 60716
Epoch (UTC): | 22 January 2021 19:28:04 |
Eccentricity: | 0.0017650 |
inclination: | 82.5139° |
perigee height: | 498 km |
apogee height: | 522 km |
right ascension of ascending node: | 226.5342° |
argument of perigee: | 28.5832° |
revolutions per day: | 15.18591256 |
mean anomaly at epoch: | 331.6366° |
orbit number at epoch: | 6071 |
The dashed part of the orbit path shows where the satellite is in the earth's shadow,
|
|